Regional Weather Roundup
Issued by NWS Green Bay, WI

Home | Current Version | Previous Version | Graphics & Text | Print | Product List | Glossary Off
Versions: 1 2 3 4 5 6 7 8 9 10 11 12 13 14 15 16 17 18 19 20 21 22 23 24 25 26 27 28 29 30 31 32 33 34 35 36 37 38 39 40 41 42 43 44 45 46 47 48 49 50

000
ASUS43 KGRB 060600
RWRGRB

NORTH-CENTRAL AND NORTHEAST WISCONSIN REGIONAL WEATHER ROUNDUP
NATIONAL WEATHER SERVICE GREEN BAY WI
100 AM CDT FRI MAY 06 2016

WIZ005-009-010>012-018-019-060700-
NORTH CENTRAL WISCONSIN

CITY           SKY/WX    TMP DP  RH WIND       PRES   REMARKS
IRONWOOD         N/A     59  37  44 S12G21    29.80F
MANITOWISH WTR NOT AVBL
ARBOR VITAE    NOT AVBL
EAGLE RIVER    NOT AVBL
LAND O LAKES   NOT AVBL
RHINELANDER    CLEAR     54  37  52 SW3       29.90F
PHILLIPS       CLEAR     53  38  56 S6        29.88F
ANTIGO         NOT AVBL
TOMAHAWK       NOT AVBL
MERRILL        CLEAR     44  40  89 CALM      29.92F
$$

WIZ013-073-060700-
NORTHEAST WISCONSIN

CITY           SKY/WX    TMP DP  RH WIND       PRES   REMARKS
IRON MOUNTAIN  PTCLDY    50  39  66 CALM      29.87F
MARINETTE      CLOUDY    50  43  76 SE6       29.90S
$$

WIZ017-030-035>037-045-060700-
CENTRAL WISCONSIN

CITY           SKY/WX    TMP DP  RH WIND       PRES   REMARKS
MEDFORD        NOT AVBL
WAUSAU         CLEAR     54  43  66 CALM      29.90F
MOSINEE        NOT AVBL
MARSHFIELD     CLEAR     54  38  54 S5        29.91S
WISC RAPIDS    CLEAR     49  39  68 SW3       29.93F
STEVENS POINT  NOT AVBL
WAUPACA        CLEAR     50  38  62 CALM      29.93S
SHAWANO        CLOUDY    55  36  48 CALM      29.91S
CLINTONVILLE   NOT AVBL
WAUTOMA        NOT AVBL
$$

WIZ038-039-048-051-060700-
FOX VALLEY

CITY           SKY/WX    TMP DP  RH WIND       PRES   REMARKS
NWS GREEN BAY  PTCLDY    50  42  74 CALM      29.92S
APPLETON       NOT AVBL
OSHKOSH        MOCLDY    52  36  54 SW7       29.93S
FOND DU LAC    CLOUDY    48  40  73 S6        29.94F
$$

WIZ022-050-052-060700-
EAST CENTRAL WISCONSIN

CITY           SKY/WX    TMP DP  RH WIND       PRES   REMARKS
EPHRAIM        NOT AVBL
STURGEON BAY   CLOUDY    48  37  66 S8        29.93S
MANITOWOC      NOT AVBL
SHEBOYGAN      PTCLDY    44  38  79 SW6       29.94F
$$

LMZ563-521-522-541>543-060700-
LAKESHORE

STATION/POSITION TIME  TEMP    WIND        PRES    VSBY  WAVE
                       AIR SEA DIR/SP/G                  HT/PER
                 (UTC) (F)     (DEG/KT/KT) (MB)    (MI)  (FT/S)
SHEBOYGAN LKSHOR 0500   46     200/  7/  8 1014.9F
KEWAUNEE LKSHORE 0500   48      CALM  /  3 1013.0F
ALGOMA MARINA    0515          230/  7/  9   N/A
NORTHPORT PIER   0500   50     190/  7/ 12 1012.5F
N MID LAKE BUOY  0450   41 39  200/ 10/ 10 1013.3F         0
CHAMBERS ISLAND  0500   50     170/  5/ 11 1012.9F
MENOMINEE LKSHOR 0500   49     180/  9/ 13 1011.4F
$$




USA.gov is the U.S. government's official web portal to all federal, state and local government web resources and services.